[[{"header":{"parameterUnit":"m.s-1","parameterCategory":1,"la1":30.2991,"la2":30.254,"lo1":-89.0895,"lo2":-89.0444,"dy":0.0017,"dx":0.0017,"nx":28,"ny":28,"refTime":"2024-07-07T21:00:00:Z","depth":0,"parameterNumber":2,"parameterNumberName":"U-component_of_WINDS"},"data":[0,0,0,0,0,0,0,0,0,0,0,0,0,0,0,0,0,0,0,0,0,0,0,0,0,0,0,0,0,0,0,0,0,0,0,0,0,0,0,0,0,0,0,0,0,0,0,0,0,0,0,0,0,0,0,0,0,0,-0.6034,-0.6033,0,-0.5925,-0.5924,-0.5922,-0.5865,-0.5864,-0.5864,-0.5864,-0.5755,-0.5752,-0.575,0,0,0,0,0,0,0,0,0,0,0,0,0,-0.6195,-0.6192,-0.6034,-0.6032,-0.6031,-0.5925,-0.5924,-0.5922,-0.5865,-0.5864,-0.5864,-0.5864,-0.5756,-0.5753,-0.5749,0,0,0,0,0,0,0,0,0,0,0,0,0,-0.611,-0.6191,-0.6034,-0.599,-0.5984,-0.5925,-0.5924,-0.5922,-0.5865,-0.5864,-0.5864,-0.5864,-0.5757,-0.5753,-0.5749,-0.5726,0,0,-0.5736,-0.5734,0,0,0,0,0,0,0,0,-0.6114,-0.6104,-0.5997,-0.5993,-0.5987,-0.5908,-0.594,-0.5856,-0.5865,-0.591,-0.5864,-0.5864,-0.5806,-0.5798,-0.5778,-0.5721,-0.5716,-0.5736,-0.5733,-0.5731,-0.573,0,0,0,0,0,0,0,-0.612,-0.6108,-0.5991,-0.5996,-0.5989,-0.5976,-0.5964,-0.5924,-0.5861,-0.5906,-0.5902,-0.589,-0.5803,-0.5782,-0.5775,-0.5715,-0.5736,-0.5732,-0.5729,-0.5728,-0.5635,-0.5635,0,0,0,0,0,0,-0.6133,-0.6113,-0.5994,-0.5988,-0.6051,-0.5973,-0.5959,-0.5934,-0.5861,-0.585,-0.589,-0.5887,-0.5789,-0.578,-0.5771,-0.574,-0.5731,-0.5727,-0.5725,-0.5635,-0.5635,-0.5635,0,0,0,0,0,0,-0.6137,-0.6123,-0.5999,-0.6049,-0.6032,-0.5971,-0.5942,-0.5932,-0.591,-0.5848,-0.5837,-0.588,-0.5789,-0.5777,-0.5738,-0.5736,-0.5725,-0.5722,-0.5635,-0.5635,-0.5635,-0.5679,0,0,0,0,0,0,-0.6142,-0.6125,-0.6115,-0.6049,-0.603,-0.5967,-0.5942,-0.593,-0.5903,-0.5899,-0.5836,-0.5825,-0.5788,-0.5745,-0.5734,-0.573,-0.5718,-0.5635,-0.5635,-0.5635,-0.5677,-0.568,-0.5683,0,0,0,0,0,-0.6148,-0.6132,-0.6115,-0.61,-0.6016,-0.5967,-0.5956,-0.5912,-0.5903,-0.5893,-0.5853,-0.5827,-0.5738,-0.5741,-0.5728,-0.5723,-0.5635,-0.5635,-0.5635,-0.5676,-0.568,-0.5683,0,0,0,0,0,0,-0.6199,-0.6122,-0.6102,-0.6065,-0.6023,-0.5957,-0.5943,-0.5917,-0.5877,-0.5875,-0.5824,-0.581,-0.5776,-0.5746,-0.5751,-0.5698,-0.5684,-0.5681,-0.5719,-0.5722,-0.5725,-0.5733,-0.5715,0,0,0,0,0,-0.6206,-0.6171,-0.6106,-0.6079,-0.6059,-0.6005,-0.5982,-0.5952,-0.5907,-0.5889,-0.5846,-0.5804,-0.5766,-0.5743,-0.5704,-0.5673,-0.5659,-0.5663,-0.5666,-0.5669,-0.5667,-0.5649,-0.5651,-0.5636,-0.5636,-0.5636,0,0,-0.622,-0.6174,-0.6155,-0.6089,-0.6052,-0.6019,-0.599,-0.5956,-0.5931,-0.5884,-0.5844,-0.5812,-0.5761,-0.5726,-0.5709,-0.57,-0.5668,-0.5669,-0.5671,-0.5668,-0.565,-0.5651,-0.5652,-0.5636,-0.5636,-0.5636,0,0,-0.6228,-0.6189,-0.6163,-0.6127,-0.6073,-0.6037,-0.6031,-0.5969,-0.5945,-0.5905,-0.5869,-0.5839,-0.5775,-0.5741,-0.5715,-0.5712,-0.5687,-0.5701,-0.5716,-0.5699,-0.57,-0.5701,-0.57,-0.5701,-0.57,-0.57,-0.57,0,-0.6252,-0.6199,-0.6153,-0.612,-0.6092,-0.6048,-0.6021,-0.5989,-0.5926,-0.5908,-0.5899,-0.5818,-0.5781,-0.5738,-0.5737,-0.5718,-0.571,-0.5708,-0.5704,-0.5704,-0.5704,-0.5703,-0.5703,-0.5702,-0.5702,-0.5701,-0.5701,0,-0.6232,-0.6196,-0.6182,-0.6121,-0.6091,-0.6062,-0.6012,-0.5988,-0.5962,-0.5927,-0.5887,-0.5841,-0.5793,-0.5781,-0.5754,-0.5734,-0.573,-0.5713,-0.5698,-0.5708,-0.5706,-0.5706,-0.5705,-0.5704,-0.5703,-0.5703,0,0,-0.6269,-0.6183,-0.6179,-0.6151,-0.6088,-0.606,-0.6029,-0.5982,-0.5963,-0.5921,-0.5895,-0.5842,-0.5826,-0.5797,-0.5766,-0.5751,-0.5753,-0.5736,-0.5734,-0.5741,-0.5728,-0.5742,-0.5742,-0.5736,-0.5735,-0.5735,-0.5733,0,-0.6269,-0.621,-0.6168,-0.6127,-0.6094,-0.6051,-0.6025,-0.5984,-0.5952,-0.592,-0.5884,-0.5847,-0.5828,-0.5811,-0.5794,-0.5756,-0.5749,-0.5755,-0.5712,-0.5711,-0.5726,-0.5741,-0.5755,-0.5755,-0.5732,-0.5732,-0.5732,0,-0.626,-0.6219,-0.6174,-0.6116,-0.61,-0.6077,-0.6031,-0.6,-0.5954,-0.5931,-0.5899,-0.5868,-0.5835,-0.5823,-0.5777,-0.5783,-0.5762,-0.5741,-0.574,-0.5734,-0.5722,-0.5737,-0.5754,-0.5755,-0.573,-0.573,-0.573,0,-0.6292,-0.6226,-0.6191,-0.6168,-0.6099,-0.6084,-0.6054,-0.6007,-0.5982,-0.5942,-0.5925,-0.5882,-0.5859,-0.5827,-0.5785,-0.578,-0.5745,-0.5729,-0.5726,-0.5727,-0.572,-0.5721,-0.5735,-0.5707,-0.5707,-0.5707,-0.5707,0,-0.6296,-0.6271,-0.6204,-0.6183,-0.6153,-0.6105,-0.6078,-0.6045,-0.6004,-0.5976,-0.5938,-0.5913,-0.5859,-0.5828,-0.5795,-0.5763,-0.5753,-0.5734,-0.5726,-0.5738,-0.574,-0.5724,-0.5723,-0.5707,-0.5707,-0.5707,-0.5707,0,-0.6327,-0.6281,-0.624,-0.6178,-0.6162,-0.6143,-0.609,-0.6069,-0.6034,-0.5999,-0.5989,-0.5935,-0.5896,-0.5851,-0.5798,-0.5776,-0.5747,-0.5735,-0.5763,-0.5758,-0.5758,-0.5759,-0.5762,-0.576,-0.5733,-0.5733,-0.5734,0,-0.6333,-0.6312,-0.6248,-0.6226,-0.6197,-0.6163,-0.6137,-0.6089,-0.6064,-0.601,-0.5995,-0.5953,-0.5918,-0.5858,-0.5815,-0.5774,-0.5761,-0.5765,-0.5755,-0.5768,-0.5762,-0.5764,-0.5762,-0.5768,-0.5768,-0.5769,-0.5769,0,-0.6348,-0.6327,-0.629,-0.6245,-0.6215,-0.6178,-0.614,-0.6125,-0.607,-0.6043,-0.6003,-0.5975,-0.5921,-0.5881,-0.5835,-0.5806,-0.5779,-0.5773,-0.577,-0.5782,-0.58,-0.5791,-0.5771,-0.5773,-0.5773,-0.5772,-0.5772,-0.5772,-0.6366,-0.6346,-0.6298,-0.6259,-0.6225,-0.619,-0.6167,-0.6129,-0.6095,-0.6046,-0.6021,-0.5981,-0.5937,-0.5872,-0.5844,-0.5813,-0.5804,-0.58,-0.5799,-0.5799,-0.5803,-0.5804,-0.5805,-0.5805,-0.5805,-0.5804,-0.5804,0,-0.638,-0.6347,-0.6311,-0.6259,-0.6228,-0.6205,-0.6161,-0.6138,-0.6103,-0.6063,-0.6029,-0.5984,-0.5944,-0.5898,-0.5857,-0.5841,-0.5828,-0.5832,-0.5832,-0.5826,-0.5813,-0.582,-0.5843,-0.5843,-0.5843,-0.5843,-0.5843,-0.5843,-0.6384,-0.6349,-0.6322,-0.627,-0.6238,-0.6198,-0.6175,-0.6144,-0.6111,-0.6062,-0.6029,-0.5999,-0.5957,-0.5912,-0.5876,-0.5863,-0.585,-0.5858,-0.5842,-0.583,-0.5827,-0.5824,-0.583,-0.5855,-0.5855,-0.5858,-0.5858,-0.5858]},{"header":{"parameterUnit":"m.s-1","parameterCategory":1,"la1":30.2991,"la2":30.254,"lo1":-89.0895,"lo2":-89.0444,"dy":0.0017,"dx":0.0017,"nx":28,"ny":28,"refTime":"2024-07-07T21:00:00:Z","depth":0,"parameterNumber":3,"parameterNumberName":"V-component_of_WINDS"},"data":[0,0,0,0,0,0,0,0,0,0,0,0,0,0,0,0,0,0,0,0,0,0,0,0,0,0,0,0,0,0,0,0,0,0,0,0,0,0,0,0,0,0,0,0,0,0,0,0,0,0,0,0,0,0,0,0,0,0,5.5228,5.5227,0,5.5158,5.5157,5.5156,5.5087,5.5086,5.5085,5.5084,5.5008,5.5007,5.5006,0,0,0,0,0,0,0,0,0,0,0,0,0,5.5301,5.53,5.5228,5.5227,5.5227,5.5158,5.5157,5.5156,5.5087,5.5086,5.5085,5.5084,5.5008,5.5007,5.5006,0,0,0,0,0,0,0,0,0,0,0,0,0,5.5254,5.53,5.5228,5.5184,5.5179,5.5158,5.5157,5.5156,5.5087,5.5086,5.5084,5.5083,5.5009,5.5007,5.5005,5.5021,0,0,5.5,5.4999,0,0,0,0,0,0,0,0,5.5256,5.5251,5.5191,5.5187,5.5182,5.513,5.5154,5.511,5.5087,5.5122,5.5084,5.5082,5.5049,5.5044,5.5034,5.5018,5.5015,5.5,5.4999,5.4998,5.4998,0,0,0,0,0,0,0,5.526,5.5254,5.52,5.5191,5.5185,5.5167,5.5158,5.5146,5.5094,5.5119,5.5114,5.5106,5.5046,5.5036,5.5031,5.5013,5.5,5.4998,5.4997,5.4997,5.5007,5.5009,0,0,0,0,0,0,5.527,5.5257,5.5202,5.5198,5.5217,5.5166,5.5157,5.5148,5.5094,5.5084,5.5108,5.5103,5.5039,5.5034,5.5029,5.5044,5.4998,5.4996,5.4995,5.5006,5.5008,5.5009,0,0,0,0,0,0,5.5272,5.5266,5.5205,5.5226,5.5217,5.5167,5.5156,5.5147,5.5136,5.5086,5.5076,5.5106,5.5038,5.5031,5.5024,5.504,5.4996,5.4994,5.5005,5.5007,5.5009,5.5075,0,0,0,0,0,0,5.5275,5.5267,5.5273,5.5227,5.5216,5.5203,5.5157,5.5147,5.5134,5.5127,5.5082,5.5073,5.5036,5.5027,5.5022,5.5037,5.4993,5.5003,5.5005,5.5008,5.5071,5.5079,5.5086,0,0,0,0,0,5.5277,5.5294,5.5274,5.5268,5.5223,5.5204,5.5198,5.5157,5.5135,5.5141,5.5108,5.5074,5.504,5.5027,5.5021,5.5035,5.5002,5.5005,5.5008,5.5068,5.5077,5.5086,0,0,0,0,0,0,5.5342,5.5287,5.5264,5.5266,5.5241,5.5192,5.5198,5.5168,5.5147,5.5142,5.5091,5.5081,5.508,5.5057,5.5044,5.5048,5.5016,5.5018,5.5064,5.5072,5.508,5.5085,5.4991,0,0,0,0,0,5.5357,5.5347,5.5299,5.5305,5.5294,5.5249,5.5239,5.521,5.518,5.5169,5.5136,5.5108,5.5091,5.508,5.5061,5.5068,5.5057,5.5075,5.5082,5.5088,5.5091,5.5093,5.51,5.5019,5.5019,5.5019,0,0,5.5386,5.5355,5.5352,5.5318,5.5294,5.5285,5.5239,5.5231,5.5223,5.5167,5.5159,5.5134,5.5099,5.5099,5.5097,5.508,5.5111,5.5092,5.5098,5.5096,5.5097,5.5104,5.5111,5.5021,5.5021,5.5021,0,0,5.5436,5.5411,5.5414,5.5392,5.5358,5.5328,5.5329,5.5286,5.5268,5.5259,5.5217,5.5206,5.5178,5.5155,5.514,5.5183,5.5151,5.5178,5.5216,5.5219,5.5225,5.5231,5.5246,5.5252,5.518,5.5181,5.5181,0,5.5476,5.5461,5.5419,5.5414,5.54,5.5351,5.5353,5.5333,5.5294,5.5286,5.5267,5.5231,5.5204,5.5198,5.5209,5.5198,5.5197,5.5183,5.5228,5.5233,5.5237,5.5251,5.5257,5.5184,5.5184,5.5183,5.5183,0,5.5514,5.5504,5.551,5.5476,5.5463,5.5461,5.5418,5.541,5.5383,5.5355,5.5347,5.5313,5.5287,5.5284,5.5256,5.5274,5.5264,5.5238,5.5204,5.5249,5.5262,5.5267,5.5189,5.5188,5.5187,5.5186,0,0,5.56,5.5544,5.5547,5.5531,5.5491,5.5482,5.5478,5.5455,5.5449,5.5424,5.5419,5.5397,5.5372,5.5355,5.5325,5.5327,5.5364,5.53,5.5298,5.5313,5.5382,5.5403,5.541,5.5342,5.5343,5.5344,5.5385,0,5.5643,5.5635,5.5597,5.56,5.559,5.5544,5.5541,5.5515,5.5489,5.5477,5.5447,5.5433,5.5401,5.539,5.5391,5.5359,5.5377,5.5356,5.5337,5.5337,5.5347,5.5416,5.5437,5.5478,5.539,5.539,5.5391,0,5.5691,5.5671,5.5673,5.5634,5.5629,5.5627,5.5603,5.5591,5.5562,5.5542,5.5525,5.5491,5.5484,5.5453,5.5443,5.5429,5.542,5.5403,5.5404,5.54,5.5367,5.5414,5.5489,5.5496,5.5398,5.5397,5.5397,0,5.5754,5.5728,5.5726,5.5714,5.5668,5.5668,5.5649,5.5618,5.5606,5.5585,5.5577,5.5554,5.5542,5.5525,5.5486,5.5467,5.548,5.5446,5.5464,5.5465,5.5468,5.5468,5.5543,5.5462,5.5462,5.5462,5.5462,0,5.5806,5.5809,5.5754,5.5753,5.5756,5.5712,5.5716,5.5692,5.5665,5.5658,5.5615,5.561,5.5559,5.5547,5.5516,5.5513,5.5507,5.5491,5.5483,5.5495,5.5497,5.5487,5.5483,5.5463,5.5463,5.5463,5.5463,0,5.5877,5.584,5.5835,5.5793,5.5783,5.5786,5.5749,5.5746,5.5718,5.571,5.5705,5.5661,5.5645,5.5605,5.5578,5.5557,5.5562,5.5547,5.5572,5.5567,5.5587,5.5586,5.5658,5.5666,5.5581,5.5582,5.5582,0,5.5912,5.5913,5.5872,5.5865,5.5848,5.5837,5.5825,5.5783,5.5773,5.574,5.5741,5.5722,5.5704,5.5681,5.5645,5.5625,5.5609,5.5636,5.5605,5.5618,5.5609,5.561,5.561,5.5642,5.5643,5.5644,5.5645,0,5.5978,5.596,5.5946,5.5926,5.5914,5.5896,5.5875,5.5871,5.5824,5.5814,5.5798,5.5785,5.5758,5.574,5.5714,5.5693,5.5661,5.5655,5.5658,5.567,5.5685,5.5678,5.5591,5.5653,5.5652,5.5652,5.5651,5.5651,5.6032,5.6031,5.6003,5.5989,5.5969,5.5951,5.5947,5.5919,5.5905,5.5881,5.5857,5.5844,5.5814,5.5776,5.5758,5.5746,5.573,5.5734,5.5735,5.5737,5.5742,5.5688,5.5741,5.5741,5.5741,5.574,5.574,0,5.6096,5.6076,5.6063,5.6037,5.6026,5.5998,5.5974,5.5966,5.5956,5.5932,5.5916,5.5898,5.588,5.5845,5.5823,5.5821,5.5806,5.5817,5.5817,5.5813,5.5758,5.5758,5.583,5.583,5.583,5.583,5.583,5.583,5.6128,5.6127,5.6106,5.6094,5.6073,5.6061,5.605,5.6033,5.6014,5.5996,5.5982,5.5959,5.593,5.5907,5.589,5.5879,5.5874,5.589,5.5875,5.5825,5.5816,5.5808,5.5808,5.5889,5.5889,5.593,5.593,5.5931]}]]